Voltar ao catálogo

COSMOS 681

AtivoMilitarLEO
NORAD 7439·PAYLOAD·🇷🇺 Russia

Lançado Sep 19, 1974 de Plesetsk Cosmodrome

Loading…

Próximas Passagens (próximas 24 horas)

TLE

AtualizadoSource: Space-Track

Época: Sep 14, 2026, 10:12 UTC

1 07439U 74072E   26257.42520944 -.00000027  00000-0 -75584-4 0  9999
2 07439  74.0316 257.0742 0005048 263.1126 264.7797 12.49073844370465

Acompanhe COSMOS 681 em tempo real com AllMySat

Download on the App Store